SCP
0 0 0 0 0 0 0 0 0 0 0 0 0 0 0 0 0 0 0 0 0 0 0 0 0 0 0 0 0 0 0 0 0 0 0 0 0 0 0 0 0 0 0 0
0 0 0 0 0 0 0 0 0 0 0 0 0 0 0 0 0 0 0 0 0 0 0 0 0 0 0 0 0 0 0 0 0 0 0 0 0 0 0 0 0 0 0 0
0 0 0 0 0 0 0 0 0 0 0 0 0 0 0 0 0 0 0 0 0 0 0 0 0 0 0 0 0 0 0 0 0 0 0 0 0 0 0 0 0 0 0 0
0 0 0 0 0 0 0 0 0 0 0 0 0 0 0 0 0 0 0 0 0 0 0 0 0 0 0 0 0 0 0 0 0 0 0 0 0 0 0 0 0 0 0 0
0 0 0 0 0 0 0 0 0 0 0 0 0 0 0 0 0 0 0 0 0 0 0 0 0 0 0 0 0 0 0 0 0 0 0 0 0 0 0 0 0 0 0 0
0 0 0 0 0 0 0 0 0 0 0 0 0 0 0 0 0 0 0 0 0 0 0 0 0 0 0 0 0 0 1 1 0 0 0 0 0 0 0 0 0 0 0 0
0 0 0 0 0 0 0 0 0 0 0 0 0 0 0 0 0 0 0 0 0 0 0 0 0 0 0 1 1 1 1 1 0 0 0 0 0 0 0 0 0 0 0 0
0 0 0 0 0 0 0 0 0 0 0 0 0 0 0 0 0 0 0 0 0 0 0 0 0 0 1 1 1 1 1 1 1 0 0 0 0 0 0 0 0 0 0 0
0 0 0 0 0 0 0 0 0 0 0 0 0 0 0 0 0 0 0 0 0 0 0 1 1 1 1 1 1 1 1 1 1 1 0 0 0 0 0 0 0 0 0 0
0 0 0 0 0 0 0 0 0 0 0 0 0 0 0 0 0 0 0 0 0 1 1 1 1 1 1 1 1 1 1 1 1 1 0 0 0 0 0 0 0 0 0 0
0 0 0 0 0 0 0 0 0 0 0 0 0 0 0 0 0 0 0 0 0 1 1 1 1 1 1 1 1 1 1 1 1 0 0 0 0 0 0 0 0 0 0 0
0 0 0 0 0 0 0 0 0 0 0 0 0 0 0 0 0 0 0 0 1 1 1 1 1 1 1 1 1 1 1 1 1 0 0 0 0 0 0 0 0 0 0 0
0 0 0 0 0 0 0 0 0 0 0 0 0 0 0 0 0 0 0 0 1 1 1 1 1 1 1 1 1 1 1 1 1 0 0 0 0 0 0 0 0 0 0 0
0 0 0 0 0 0 0 0 0 0 0 0 0 0 0 0 0 0 0 0 1 1 1 1 1 1 1 1 1 1 1 1 1 1 0 0 0 0 0 0 0 0 0 0
0 0 0 0 0 0 0 0 0 0 0 0 0 0 0 0 0 0 0 1 1 1 1 1 0 0 1 1 1 1 1 1 1 1 0 0 0 1 0 0 0 0 0 0
0 0 0 0 0 0 0 0 0 0 0 0 0 0 0 0 0 0 1 1 1 1 0 0 0 0 1 1 1 1 1 1 1 0 0 0 0 0 0 0 0 0 0 0
0 0 0 0 0 0 0 0 0 0 0 0 0 0 0 0 0 1 1 1 1 0 0 0 0 0 0 0 0 1 1 1 0 0 0 0 0 0 0 0 0 0 0 0
0 0 0 0 0 0 0 0 0 0 0 0 0 0 0 0 0 1 1 1 0 0 0 0 0 0 0 0 1 1 1 0 0 0 0 0 0 0 0 0 0 0 1 1
0 0 0 0 0 0 0 0 0 0 0 0 0 0 0 0 0 0 1 0 0 0 0 0 0 1 1 1 1 1 1 0 0 0 0 0 0 0 1 1 1 1 1 1
0 0 0 0 0 0 0 0 0 0 0 0 0 0 0 0 0 0 0 0 0 0 0 0 0 1 1 1 1 1 1 0 0 1 1 1 1 1 1 1 1 1 1 1
0 0 0 0 0 0 0 0 0 0 0 0 0 0 0 0 0 0 0 0 0 0 0 0 0 1 1 1 1 1 1 1 1 1 1 1 1 1 1 1 1 1 1 1
0 0 0 0 0 0 0 0 0 0 0 0 0 0 0 0 0 1 1 0 0 0 1 1 1 1 1 1 1 1 1 1 1 1 1 1 1 1 1 1 1 1 0 0
0 0 0 0 0 0 0 0 0 0 0 0 0 0 0 0 0 1 1 1 1 1 1 1 1 1 1 1 1 1 1 1 1 1 1 1 1 1 1 0 0 0 0 0
0 0 0 0 0 0 0 0 0 0 0 0 0 0 0 0 0 1 1 1 1 1 1 1 1 1 1 1 1 1 0 1 1 1 1 1 1 1 0 0 0 0 0 0
0 0 0 0 0 0 0 0 0 0 0 0 0 0 0 0 0 1 1 1 1 1 1 1 1 1 1 1 1 0 0 1 1 1 1 1 1 1 0 0 0 0 0 0
0 0 0 0 0 0 0 0 -0 -0 -0 0 -0 0 0 0 0 1 1 1 1 1 1 1 1 1 1 1 1 0 0 1 1 1 1 0 0 0 0 0 0 0 0 0
Wind_Speed
2 1 4 8 7 7 4 3 5 6 3 2 4 5 7 9 9 10 10 10 10 10 9 10 11 11 10 8 8 7 7 5 4 3 2 2 1 1 1 1 2 2 2 2
2 6 12 8 6 5 4 4 5 4 2 2 4 4 8 10 12 13 14 13 12 9 9 10 10 11 10 10 9 8 7 6 5 3 3 2 2 2 2 1 1 2 1 1
8 10 8 7 6 5 6 7 6 4 1 2 3 1 4 6 7 8 10 12 12 13 13 12 11 10 10 10 10 9 8 7 6 4 2 2 1 1 1 0 1 1 1 2
7 8 6 7 7 5 6 8 7 5 2 1 2 1 6 5 5 7 8 10 11 11 11 11 11 11 11 11 9 8 7 6 5 5 4 4 3 2 2 2 1 1 1 1
6 5 5 7 9 5 6 5 3 3 3 1 2 2 6 1 4 7 8 11 12 12 13 13 13 12 11 10 9 7 7 6 5 5 5 4 3 2 1 1 1 1 1 1
8 6 5 7 7 5 4 2 3 4 5 1 4 3 6 4 8 7 8 10 11 11 12 12 11 9 8 8 8 8 8 6 5 5 5 4 4 3 2 2 2 1 1 1
6 6 5 3 3 5 2 5 4 5 4 4 4 2 7 6 5 7 7 8 8 9 10 10 10 9 9 9 9 8 8 7 6 6 5 5 5 5 5 3 3 2 1 1
4 7 5 3 4 4 2 7 7 5 4 4 3 3 6 5 3 4 5 6 7 9 9 10 11 11 10 10 9 8 8 7 7 6 5 5 5 4 3 4 3 3 3 2
6 7 5 4 4 4 2 2 7 7 3 1 3 4 6 2 1 2 3 5 6 8 9 10 9 10 10 10 9 9 8 7 6 6 5 4 4 4 4 3 3 2 2 2
8 4 5 5 3 2 5 5 4 5 4 2 3 3 4 4 4 3 4 5 5 5 6 8 8 9 9 8 8 7 7 6 6 6 5 5 5 4 4 3 3 3 3 2
5 5 4 3 1 3 2 2 3 4 5 7 4 7 6 8 6 6 6 6 6 6 6 7 7 8 8 7 7 7 6 5 5 5 5 4 4 4 3 3 3 3 2 2
3 6 2 5 4 2 4 3 5 4 3 4 5 7 4 6 5 6 5 5 6 6 6 7 7 8 8 7 7 6 6 6 5 5 4 4 3 4 4 3 3 3 3 2
4 6 2 6 6 5 3 1 2 4 4 3 4 6 2 3 2 3 4 5 6 6 6 6 6 8 8 7 7 6 6 5 5 5 5 4 4 4 4 4 3 3 2 2
5 6 6 7 7 3 1 2 1 4 3 3 5 5 3 4 4 4 4 4 5 6 7 7 7 7 7 7 7 7 6 5 5 5 4 4 4 4 4 3 3 3 3 2
6 4 2 3 3 2 1 2 1 2 5 6 6 7 9 9 9 8 6 5 5 5 6 8 8 7 7 7 6 6 5 5 5 5 4 4 3 3 3 3 3 3 2 2
5 3 2 2 2 1 2 3 2 1 2 3 3 3 4 4 5 5 6 7 6 5 6 7 8 8 8 8 7 6 6 5 5 5 4 4 3 3 3 3 3 3 2 2
2 4 3 2 3 3 4 3 2 1 1 5 5 5 2 2 5 8 9 9 8 7 6 7 8 8 7 7 8 8 7 5 5 5 4 3 3 3 4 4 2 3 3 2
4 3 3 1 2 2 7 4 1 2 1 2 3 2 4 6 5 4 5 7 6 7 7 7 7 6 6 5 6 6 6 6 5 5 4 4 3 3 3 3 3 3 2 2
6 6 3 3 3 4 5 4 1 3 1 1 3 4 3 3 5 3 1 3 5 7 7 7 8 8 7 6 6 6 5 5 5 4 4 4 4 3 3 3 4 3 2 2
4 6 5 4 3 5 6 4 2 5 1 2 3 5 5 4 3 3 3 2 2 3 4 6 7 6 7 7 7 7 6 5 5 5 4 4 4 4 4 3 3 2 2 3
2 2 3 4 4 6 6 4 1 4 7 3 3 5 5 3 4 5 3 3 3 4 5 5 6 6 6 7 8 7 6 5 5 4 3 3 3 3 4 3 2 2 2 2
4 3 3 4 4 7 4 2 4 6 3 3 3 4 4 2 2 1 1 2 3 4 4 5 5 4 5 6 7 6 5 4 3 3 3 2 2 2 2 2 1 2 2 2
3 6 6 7 7 6 2 3 3 4 4 3 3 3 4 3 2 2 2 2 3 3 3 4 5 5 3 4 6 6 5 4 5 4 3 2 1 1 1 2 2 1 1 2
4 0 2 0 3 2 1 2 2 4 4 3 3 4 5 4 3 2 2 2 2 3 3 3 5 5 3 3 4 5 5 5 5 4 3 3 2 1 1 1 1 2 2 2
4 1 1 1 3 2 1 1 2 2 3 4 3 4 5 5 3 2 2 2 2 3 3 2 3 4 4 3 3 4 4 5 5 4 3 2 2 2 2 1 1 2 2 3
4 3 3 6 7 5 5 4 3 4 4 4 5 4 4 5 3 2 2 2 3 3 2 2 2 3 3 3 3 3 3 5 5 4 3 2 2 2 2 2 1 3 1 2
Wind_Direction
255 110 245 240 221 217 217 255 264 266 243 146 173 166 182 183 183 180 177 177 179 179 172 165 163 161 159 159 160 162 160 168 158 146 145 143 170 196 197 189 173 174 184 184
353 246 241 243 248 234 238 255 267 294 251 169 175 186 195 190 195 189 184 183 181 173 164 166 166 166 165 167 167 166 167 170 169 168 168 170 171 194 199 197 165 168 176 200
216 239 250 255 257 240 246 219 226 222 324 54 126 295 216 211 203 195 188 183 180 179 175 173 172 174 171 173 174 173 174 174 176 169 147 127 89 63 45 180 192 202 195 199
239 243 252 256 253 218 250 234 206 186 150 269 133 222 274 224 200 198 192 183 182 183 177 177 175 177 179 181 176 169 172 174 174 161 154 161 167 185 209 201 199 216 201 192
247 237 239 252 250 220 233 226 177 167 132 58 354 134 279 230 208 215 197 187 185 182 179 179 180 182 180 176 173 167 163 168 171 167 167 170 177 192 193 179 180 202 215 192
246 246 223 231 252 239 208 69 42 46 66 30 257 177 266 230 212 206 196 187 184 182 180 180 180 173 170 167 167 165 163 170 176 176 176 168 170 174 172 186 192 213 235 243
288 281 266 252 289 308 96 94 36 5 15 257 267 180 244 246 219 189 184 187 185 182 178 174 172 169 169 169 169 167 166 172 178 175 177 173 175 175 179 186 190 190 196 225
229 273 261 239 203 219 229 143 159 191 214 259 303 239 259 263 210 165 166 171 173 182 180 175 175 171 170 170 166 164 167 176 178 180 183 177 176 178 186 188 187 192 198 207
197 245 266 261 241 173 202 204 171 144 159 168 272 280 305 339 140 125 130 143 160 175 172 168 167 166 167 169 170 170 170 173 178 181 178 177 180 179 187 190 186 193 203 200
175 225 272 278 339 326 169 168 98 118 151 208 262 253 233 231 216 169 149 156 163 151 151 159 159 159 164 165 163 159 164 173 179 178 183 184 188 189 185 175 183 191 197 196
155 167 292 350 245 247 30 59 110 125 155 161 202 255 224 198 196 177 180 171 159 148 151 153 156 153 148 144 151 156 160 163 170 175 182 184 191 192 183 182 190 188 184 183
147 132 215 253 259 179 140 154 137 146 224 169 166 257 264 186 186 177 185 170 151 145 147 147 150 146 145 147 149 155 162 167 174 170 168 182 198 188 186 194 199 183 179 185
119 108 77 339 342 359 51 70 118 128 125 152 161 249 285 156 157 178 167 159 142 130 134 132 141 149 155 156 157 161 165 168 169 162 164 180 191 182 195 205 203 189 184 193
100 108 152 194 218 218 277 311 80 108 136 207 206 208 223 204 185 183 168 157 146 139 141 145 153 161 162 162 164 166 171 170 168 165 167 184 191 186 194 202 202 198 193 194
82 109 164 208 225 185 207 286 267 186 191 191 211 193 208 204 192 182 168 150 146 145 150 157 162 163 161 161 164 165 167 168 165 164 171 188 190 178 168 176 192 199 206 209
61 97 61 355 340 20 338 310 290 240 172 167 159 224 213 193 170 162 160 154 161 170 169 169 164 161 165 166 163 159 164 170 162 167 181 185 178 174 175 183 190 194 197 204
74 98 85 297 318 27 315 259 230 257 184 161 189 223 186 141 168 177 173 166 171 182 174 172 170 168 170 171 164 167 171 168 161 168 176 177 179 184 187 186 187 206 200 188
139 109 127 138 58 220 248 266 190 99 52 133 146 156 153 160 170 160 156 162 175 185 176 172 170 168 165 162 159 162 158 157 163 169 175 176 177 187 191 184 196 210 189 186
148 142 130 129 174 255 283 285 194 135 327 38 124 124 119 121 84 67 137 161 181 190 180 172 166 163 157 152 149 143 149 157 165 177 184 185 182 185 191 198 206 201 184 196
76 111 126 142 167 217 241 255 192 116 241 270 135 132 129 103 109 223 228 212 174 162 161 161 157 152 152 156 147 146 161 165 180 190 192 190 184 185 195 201 203 198 184 194
15 41 144 171 202 244 253 274 112 171 219 216 151 142 139 149 190 210 209 182 153 150 158 152 146 152 163 157 148 150 158 179 189 181 176 178 179 186 185 182 187 175 178 182
192 188 200 165 194 243 266 89 169 206 185 143 125 126 121 115 109 132 124 140 132 116 129 133 131 141 150 150 146 149 167 178 157 150 152 161 173 190 173 161 176 167 164 170
195 194 192 189 211 232 229 159 177 145 131 144 136 127 114 99 94 81 65 58 104 109 122 129 126 125 132 151 153 158 175 160 146 142 147 153 154 156 156 165 171 167 166 169
294 270 124 226 265 245 156 115 126 140 142 159 142 126 111 110 114 100 84 85 96 93 98 112 120 125 135 151 151 158 160 152 143 148 153 155 149 141 127 150 167 176 192 184
267 348 70 239 266 319 317 163 144 113 103 95 93 108 119 118 119 116 98 101 101 88 93 100 136 145 154 152 145 154 154 142 141 145 150 162 170 160 151 147 208 210 224 219
243 195 189 231 232 195 223 224 153 128 127 117 104 86 96 118 117 106 102 121 112 94 97 100 127 134 141 144 148 159 165 151 147 150 160 181 183 166 154 145 18 2 320 289